www.pogodaiklimat.ru

Погода и климат >> Архив погоды >> Россия >> Калининградская область >> Мамоново


ПОГОДА в Мамоново

  • Прогноз погоды в Мамоново
  • Монитор погоды в Мамоново

АРХИВ ПОГОДЫ в Мамоново

Время (UTC), дата Ветер
(напр.,м/с)
 
Видим.   Явления Облачность Т
(С)
Тd
(С)
f
(%)
Тe
(С)
Тes
(С)
Комфортность P
(гПа)
Po
(гПа)
Тmin
(С)
Tmax
(С)
R
(мм)
R24
(мм)
S
(см)
00 10.09 В 1-1
{8}
10 км 10/10 300 м
[Sc]
+16.0 +10.4 69 +17 +17 1009.5 1006.7
03 10.09 ЮВ 4-7
{9}
4000 м слаб. ливневой дождь 10/10 300 м
[Cb cap]
+17.4 +10.8 65 +17 +17 1008.6 1005.8 +15.1 0.0
06 10.09 ЮВ 5-10
{12}
10 км {ливн. осадки} 9/9 300 м
[Sc]
+15.2 +11.5 79 +14 +14 1010.0 1007.2 +15.1 0.0
09 10.09 ЮВ 6-13
{13}
10 км 10/10 300 м
[Sc]
+15.1 +12.1 82 +13 +13 1010.9 1008.1
12 10.09 Ю 6-10
{15}
10 км {ливн. осадки} 10/10 300 м
[Sc]
+14.5 +12.9 90 +13 +13 1012.3 1009.5
15 10.09 Ю 6-11
{13}
4000 м слаб. ливневой дождь 10/10 300 м
[Cb cap]
+14.6 +12.6 88 +13 +13 1013.9 1011.1 0.8
18 10.09 Ю 5-9
{16}
10 км {ливн. осадки} 10/10 300 м
[Sc]
+15.0 +11.8 81 +14 +14 1016.4 1013.6 +17.2 0.8
21 10.09 Ю 5-8
{11}
10 км 6/6 300 м
[Sc]
+15.4 +9.8 69 +14 +14 1017.2 1014.4
00 11.09 Ю 5-7
{10}
10 км ясно +14.0 +8.4 69 +12 +12 1018.7 1015.8
03 11.09 Ю 4-6
{8}
10 км ясно +11.9 +8.0 77 +10 +10 1019.6 1016.7 +11.9 0.0
06 11.09 Ю 4-7
{8}
10 км ясно +13.0 +8.9 76 +11 +12 1021.1 1018.2 +11.5
09 11.09 Ю 4-8
{8}
10 км 3/1 300 м
[Sc Ci fib]
+18.9 +11.6 63 +20 +24 1022.8 1020.0
12 11.09 ЮЗ 5-9
{10}
10 км ясно +20.8 +9.8 49 +22 +26 комфорт 1023.0 1020.2
15 11.09 Ю 4-7
{10}
10 км 6/6 300 м
[Cu hum]
+19.6 +9.5 52 +21 +21 комфорт 1022.7 1019.9
18 11.09 ЮВ 1-2
{7}
10 км ясно +13.7 +9.9 78 +14 +14 1023.1 1020.2 +21.1
21 11.09 ЮВ 1-2
{2}
10 км 3/0
[Ci fib]
+11.6 +8.6 82 +11 +11 1023.0 1020.1
00 12.09 ЮВ 1-2
{3}
10 км ясно +10.7 +8.5 86 +10 +10 1022.4 1019.5
03 12.09 Ю 2-3
{3}
10 км 10/10 300 м
[Sc]
+11.8 +9.4 85 +11 +11 1021.7 1018.8 +10.5
06 12.09 Ю 3-7
{7}
10 км 3/3 300 м
[Sc]
+14.4 +11.0 80 +13 +14 1022.3 1019.4 +10.5
09 12.09 ЮЗ 3-7
{9}
10 км 10/10 300 м
[Sc]
+17.0 +12.6 75 +17 +17 1023.9 1021.1
12 12.09 ЮЗ 5-7
{9}
10 км 8/4 300 м
[Cu med, cong Ci fib]
+19.9 +13.2 65 +22 +24 комфорт 1024.9 1022.1
15 12.09 З 1-3
{8}
10 км 9/9 300 м
[Sc]
+19.2 +13.1 68 +22 +22 комфорт 1025.0 1022.2
18 12.09 штиль 0
{3}
10 км 9/9 300 м
[Sc]
+15.3 +14.1 93 +15 +15 1025.5 1022.6 +20.7
21 12.09 ЮЗ 1-2
{3}
10 км 10/10 300 м
[Sc]
+14.6 +13.0 90 +15 +15 1025.4 1022.5
00 13.09 ЮЗ 1-2
{3}
10 км 10/10 300 м
[Sc]
+14.3 +12.3 88 +15 +15 1024.5 1021.6
03 13.09 Ю 2-3
{3}
10 км 10/10 300 м
[Sc]
+12.9 +12.3 96 +12 +12 1023.2 1020.3 +12.6
06 13.09 Ю 2-4
{5}
10 км 10/10 300 м
[Sc]
+14.6 +13.2 91 +14 +14 1022.5 1019.6 +12.6 0.1
09 13.09 ЮЗ 4-7
{8}
10 км 10/10 300 м
[Sc]
+18.2 +13.7 75 +18 +18 1021.0 1018.2
12 13.09 З 5-9
{10}
10 км 10/10 300 м
[Sc]
+19.6 +15.8 79 +21 +21 комфорт 1020.5 1017.7
15 13.09 СЗ 7-12
{14}
10 км {ливн. осадки} 8/8 300 м
[Sc]
+17.5 +11.4 67 +17 +17 1023.2 1020.4 4
18 13.09 З 6-11
{14}
10 км {ливн. осадки} 6/6 300 м
[Sc]
+15.8 +9.2 65 +14 +14 1024.7 1021.8 +19.8 0.4
21 13.09 СЗ 5-10
{12}
10 км 6/6 300 м
[Sc]
+15.7 +9.7 67 +15 +15 1025.6 1022.7
00 14.09 СЗ 5-10
{10}
10 км 8/8 300 м
[Sc]
+15.4 +9.2 67 +14 +14 1026.6 1023.7
03 14.09 СЗ 4-8
{11}
10 км 8/8 300 м
[Sc]
+14.2 +8.5 69 +13 +13 1027.0 1024.1 +14.0
06 14.09 З 5-9
{9}
10 км 9/9 300 м
[Sc]
+15.1 +10.5 74 +14 +14 1028.3 1025.4 +13.9
09 14.09 З 5-9
{11}
10 км {ливн. осадки} 9/9 300 м
[Sc]
+16.5 +11.3 71 +16 +16 1029.3 1026.4
12 14.09 З 5-11
{11}
10 км {ливн. осадки} 8/8 300 м
[Sc]
+17.4 +9.5 60 +17 +18 1029.0 1026.2
15 14.09 З 4-6
{11}
10 км 9/9 300 м
[Sc]
+16.6 +10.3 66 +16 +16 1028.3 1025.4 0.6
18 14.09 З 3-6
{9}
10 км 6/6 300 м
[Sc]
+13.5 +8.8 73 +12 +12 1027.5 1024.6 +18.1 0.6
21 14.09 ЮЗ 3-5
{7}
10 км 6/6 300 м
[Sc]
+12.5 +9.1 80 +11 +11 1026.9 1024.0
00 15.09 ЮЗ 3-5
{6}
10 км 6/6 300 м
[Sc]
+10.7 +8.5 86 +9 +9 1025.0 1022.1
03 15.09 ЮЗ 2-3
{5}
10 км 6/6 300 м
[Sc]
+8.8 +6.9 88 +7 +7 1022.9 1020.0 +8.6
06 15.09 Ю 4-5
{7}
10 км 8/8 300 м
[Sc]
+10.4 +7.2 81 +8 +8 1019.8 1016.9 +8.6
09 15.09 ЮЗ 7-12
{12}
10 км 10/10 300 м
[Sc]
+16.2 +7.8 57 +15 +15 1016.2 1013.4
12 15.09 ЮЗ 7-11
{14}
10 км 8/4 300 м
[Sc Ci fib]
+19.0 +7.8 48 +19 +20 1012.6 1009.8
15 15.09 З 4-9
{13}
4000 м слаб. ливневой дождь 10/10 300 м
[Cb cap]
+17.3 +10.1 63 +17 +17 1011.3 1008.5 0.0
18 15.09 З 5-10
{13}
10 км {ливн. осадки} 10/10 300 м
[Sc]
+16.3 +11.9 75 +15 +15 1010.7 1007.9 +20.2 0.4
21 15.09 З 4-9
{11}
10 км 9/9 300 м
[Sc]
+15.5 +11.4 77 +15 +15 1009.6 1006.8
00 16.09 З 6-12
{15}
10 км 9/9 300 м
[Sc]
+14.5 +7.1 61 +13 +13 1009.9 1007.1
03 16.09 З 7-13
{14}
10 км 9/9 300 м
[Cu Sc]
+14.1 +7.6 65 +12 +12 1009.8 1007.0 +14.1 0.4
06 16.09 З 6-11
{15}
10 км 9/9 300 м
[Cu Sc]
+14.3 +9.0 70 +12 +12 1009.7 1006.9 +13.8
09 16.09 З 6-12
{14}
10 км 9/8 300 м
[Cu Sc Ci fib]
+15.8 +9.3 65 +14 +15 1010.5 1007.7
12 16.09 З 7-12
{14}
10 км 8/8 300 м
[Cu Sc]
+16.3 +7.7 57 +15 +15 1010.8 1008.0
15 16.09 З 6-12
{14}
10 км 4/4 300 м
[Cu med, cong]
+15.6 +5.9 52 +14 +15 1010.4 1007.6
18 16.09 З 7-14
{14}
10 км 8/8 300 м
[Cu Sc]
+13.9 +6.9 63 +12 +12 1009.8 1007.0 +18.0
21 16.09 З 5-9
{14}
10 км слаб. ливневой снег 10/10 300 м
[]
+11.9 +8.7 81 +9 +9 1009.5 1006.6

 

Местоположение метеостанции Мамоново (Калининградская область, Россия): широта 54.47 долгота 19.93 высота над уровнем моря 23 м.

В архиве по умолчанию представлена погода в Мамоново за последнюю неделю. Архивные данные за месяц целиком и за предыдущие месяцы, начиная с января 2011 года, Вы можете получить, выбрав интересующий диапазон дат из раскрывающегося списка и нажав кнопку "Ввод!".


*Определитесь, кто Вы:
робот инопланетянин человек

Внимание! Время в таблицах - всемирное. Для получения местного времени необходимо прибавить поправку, которая равна 2 ч.

Смотрите также архив погоды в соседних городах и на ближайших метеорологических станциях:

Погода в Балтийске (Калининградская область, Россия) (20 км)
Погода в Рыбном Порту (Калининградская область, Россия) (42 км)
Погода в Эльблонге (Польша) (47 км)
Погода в Калининграде (Калининградская область, Россия) (51 км)
Погода в Пионерском (Калининградская область, Россия) (56 км)
Погода в Хеле (Польша) (73 км)
Погода в Ольштыне (Польша) (84 км)
Погода в Железнодорожном (Калининградская область, Россия) (89 км)
Погода на Авиабазе Гдыня-Оксывье (Польша) (92 км)
Погода в Рыбачем (Калининградская область, Россия) (96 км)

Пояснения к столбцам:

Ветер - указаны скорость ветра в м/с - средняя за 10 мин, порывы в срок и между сроками (в фигурных скобках) и направление, откуда дует ветер: С - северный, СВ - северо-восточный, В - восточный, ЮВ - юго-восточный, Ю - южный, ЮЗ - юго-западный, З - западный, СЗ - северо-западный.
Видимость - горизонтальная дальность видимости в метрах или километрах. При видимости от 1 до 10 км при отсутствии осадков обычно наблюдается дымка, при ухудшении видимости до 1 км и менее - туман. В сухую погоду видимость может ухудшаться дымом, пылью или мглою.
Явления - указаны атмосферные явления, наблюдавшиеся в срок или в последний час перед сроком; фигурными скобками обозначены явления, наблюдавшиеся между сроками (за 1-3 часа до срока); квадратными скобками обозначены град или гололедные отложения с указанием их диаметра в мм.
Облачность - указаны через наклонную черту общая и нижняя облачность в баллах и высота нижней границы облаков в метрах; квадратными скобками обозначены формы облаков: Ci - перистые, Cs - перисто-слоистые, Cc - перисто-кучевые, Ac - высококучевые, As - высокослоистые, Sc - слоисто-кучевые, Ns - слоисто-дождевые, Cu - кучевые, Cb - кучево-дождевые. Подробнее классификацию облаков см. в Атласе облаков (PDF).
T - Температура воздуха - температура, измеренная на высоте 2 м над землей.
Td - Температура точки росы - температура, при понижении до которой содержащийся в воздухе водяной пар достигнет насыщения.
f - Относительная влажность воздуха - влажноcть воздуха, измеренная на высоте 2 м над землей.
Te - Эффективная температура - температура, которую ощущает одетый по сезону человек в тени. Характеристика душности погоды. При расчете учитывается влияние влажности воздуха и скорости ветра на теплоощущения человека.
Tes - Эффективная температура на солнце - температура, которую ощущает человек, с поправкой на солнечный нагрев. Характеристика знойности погоды. Зависит от высоты солнца над горизонтом, облачности и скорости ветра. Ночью, в пасмурную погоду, а также при ветре 12 м/с и более поправка равна нулю.
P - Атмосферное давление - приведенное к уровню моря атмосферное давление.
Po - Атмосферное давление - измеренное на уровне метеостанции атмосферное давление.
Tmin - Минимальная температура - минимум температуры воздуха на высоте 2 м над землей.
Tmax - Максимальная температура - максимум температуры воздуха на высоте 2 м над землей.
R - Количество осадков - Количество выпавших осадков за период времени, мм. При наведении курсора мыши на число - период времени, за который выпало указанное количество осадков.
R24 - Количество осадков - Количество выпавших осадков за 24 часа, мм.
S - Снежный покров - Высота снежного покрова, см. При наведении курсора мыши на число - состояние снежного покрова и степень покрытия местности в баллах.